Find Starlink 5412

NORAD ID: 54806 Int'l Des: 2022-175 Owner: SPXS Country: US Constellation: starlink operational
LEOCIRCULAR

現在のビュー

3D地球を読み込み中...

About Starlink 5412

Starlink 5412 (NORAD 54806) is a starlink constellation satellite (v1.5) launched Dec 17, 2022 by SPXS of US. It operates in LEO, CIRCULAR orbit with a mass of 305.00 kg.

Starlink 5412について

説明を読み込み中...

次回通過

Passes for default location (London). Set your location on the main map for personalized predictions.

高度履歴

Loading altitude history...

軌道要素

1 54806U 22175BA 26171.41668980 .00025351 00000-0 12215-2 0 9998
2 54806 53.1592 287.0329 0001197 114.0858 90.9363 15.18599427 5776
Epoch: Jun 20, 2026 • Age: 28 hours

現在のステータス

高度 511.1 km
速度 7.61 km/s
衛星直下点 31.78°N, 47.73°W
打ち上げ日 Dec 17, 2022
運用期間 3.5 years
タイプ internet

技術仕様

分類 Payload
質量 305.00 kg
乾燥質量 290.00 kg
総質量 305.00 kg
長さ 0.20 m
直径 2.80 m
スパン 9.00 m
形状 Box + pan
製造者 SPXS
バスタイプ Starlink
フェーズステータス In Orbit
所有者/国 SPXS/US

Most Searched